| time (UTC) | temp C | wind direction | speed KPH | gust KPH | rain 1hr cm | rain 24hr cm | rain mn cm | humidity % | barometer mb |
| 20260510095128 | 10 | 167 | 0.0 | 0.0 | 0.00 | 0.66 | 0.00 | 94 | 1011.7 |
| 20260510094628 | 10 | 167 | 0.0 | 0.0 | 0.00 | 0.66 | 0.00 | 94 | 1011.7 |
| 20260510094128 | 10 | 167 | 0.0 | 0.0 | 0.00 | 0.66 | 0.00 | 94 | 1011.7 |
| 20260510093628 | 10 | 167 | 0.0 | 0.0 | 0.00 | 0.66 | 0.00 | 94 | 1011.6 |
| 20260510092628 | 10 | 167 | 0.0 | 0.0 | 0.00 | 0.66 | 0.00 | 94 | 1011.6 |
| 20260510092128 | 10 | 167 | 0.0 | 0.0 | 0.00 | 0.66 | 0.00 | 94 | 1011.6 |
| 20260510091628 | 10 | 167 | 0.0 | 0.0 | 0.00 | 0.66 | 0.00 | 94 | 1011.5 |
| 20260510091128 | 10 | 167 | 0.0 | 0.0 | 0.00 | 0.66 | 0.00 | 94 | 1011.5 |
| 20260510090628 | 10 | 167 | 0.0 | 1.6 | 0.00 | 0.66 | 0.00 | 94 | 1011.5 |
| 20260510090127 | 10 | 167 | 0.0 | 1.6 | 0.00 | 0.66 | 0.00 | 94 | 1011.4 |
| 20260510085628 | 10 | 167 | 0.0 | 1.6 | 0.00 | 0.66 | 0.00 | 94 | 1011.4 |
| 20260510085128 | 10 | 167 | 0.0 | 4.8 | 0.00 | 0.66 | 0.00 | 94 | 1011.3 |
| 20260510084627 | 10 | 167 | 0.0 | 4.8 | 0.00 | 0.66 | 0.00 | 94 | 1011.2 |
| 20260510084128 | 10 | 167 | 0.0 | 1.6 | 0.00 | 0.66 | 0.00 | 94 | 1011.2 |
| 20260510083128 | 10 | 167 | 0.0 | 0.0 | 0.00 | 0.66 | 0.00 | 94 | 1011.3 |
| 20260510081127 | 10 | 167 | 0.0 | 4.8 | 0.00 | 0.66 | 0.00 | 94 | 1011.4 |
| 20260510080627 | 10 | 167 | 0.0 | 4.8 | 0.00 | 0.66 | 0.00 | 94 | 1011.5 |
| 20260510075627 | 10 | 202 | 1.6 | 3.2 | 0.00 | 0.66 | 0.00 | 94 | 1011.5 |
| 20260510075127 | 10 | 198 | 1.6 | 1.6 | 0.00 | 0.66 | 0.00 | 94 | 1011.9 |
| 20260510074627 | 10 | 198 | 0.0 | 1.6 | 0.00 | 0.66 | 0.00 | 94 | 1012.2 |
| 20260510074127 | 10 | 198 | 0.0 | 1.6 | 0.00 | 0.66 | 0.00 | 94 | 1012.2 |
| 20260510073627 | 10 | 198 | 0.0 | 1.6 | 0.00 | 0.66 | 0.00 | 94 | 1012.0 |
| 20260510073127 | 10 | 198 | 0.0 | 1.6 | 0.00 | 0.66 | 0.00 | 94 | 1012.0 |
| 20260510072627 | 10 | 198 | 0.0 | 0.0 | 0.00 | 0.66 | 0.00 | 94 | 1012.1 |
| 20260510072127 | 10 | 198 | 0.0 | 0.0 | 0.00 | 0.66 | 0.00 | 94 | 1012.1 |
| 20260510071127 | 10 | 198 | 0.0 | 1.6 | 0.00 | 0.66 | 0.00 | 94 | 1012.2 |
| 20260510070627 | 10 | 198 | 0.0 | 1.6 | 0.00 | 0.66 | 0.00 | 94 | 1012.1 |
| 20260510070127 | 10 | 198 | 0.0 | 1.6 | 0.00 | 0.66 | 0.00 | 94 | 1012.1 |
| 20260510065627 | 10 | 198 | 0.0 | 4.8 | 0.00 | 0.66 | 0.00 | 94 | 1012.3 |
| 20260510065127 | 10 | 198 | 0.0 | 4.8 | 0.00 | 0.66 | 0.00 | 94 | 1012.4 |
| 20260510064627 | 10 | 192 | 0.0 | 1.6 | 0.00 | 0.69 | 0.00 | 94 | 1012.4 |
| 20260510064127 | 10 | 192 | 0.0 | 4.8 | 0.00 | 0.69 | 0.00 | 94 | 1012.4 |
| 20260510063627 | 10 | 192 | 0.0 | 4.8 | 0.00 | 0.69 | 0.00 | 94 | 1012.4 |
| 20260510063127 | 10 | 304 | 1.6 | 3.2 | 0.00 | 0.71 | 0.00 | 94 | 1012.6 |
| 20260510062627 | 10 | 344 | 1.6 | 3.2 | 0.00 | 0.71 | 0.00 | 94 | 1012.6 |
| 20260510062127 | 10 | 211 | 0.0 | 8.0 | 0.00 | 0.71 | 0.00 | 94 | 1012.0 |
| 20260510061127 | 10 | 215 | 0.0 | 3.2 | 0.00 | 0.71 | 0.00 | 94 | 1011.8 |
| 20260510060627 | 10 | 215 | 0.0 | 3.2 | 0.00 | 0.71 | 0.00 | 94 | 1011.7 |
| 20260510060127 | 10 | 162 | 0.0 | 1.6 | 0.00 | 0.71 | 0.00 | 94 | 1011.8 |
| 20260510055127 | 10 | 162 | 0.0 | 1.6 | 0.00 | 0.76 | 0.00 | 94 | 1012.3 |
| 20260510054627 | 10 | 162 | 0.0 | 3.2 | 0.00 | 0.79 | 0.00 | 94 | 1012.3 |
| 20260510054127 | 10 | 177 | 0.0 | 3.2 | 0.00 | 0.79 | 0.00 | 94 | 1012.2 |
| 20260510053626 | 10 | 184 | 1.6 | 4.8 | 0.00 | 0.79 | 0.00 | 94 | 1012.2 |
| 20260510053127 | 10 | 184 | 3.2 | 4.8 | 0.00 | 0.79 | 0.00 | 94 | 1012.1 |
| 20260510052627 | 10 | 283 | 1.6 | 3.2 | 0.00 | 0.79 | 0.00 | 94 | 1012.1 |
| 20260510051127 | 10 | 212 | 0.0 | 3.2 | 0.00 | 0.79 | 0.00 | 94 | 1012.1 |
| 20260510050627 | 10 | 212 | 1.6 | 3.2 | 0.00 | 0.79 | 0.00 | 94 | 1012.0 |
| 20260510050126 | 10 | 212 | 0.0 | 1.6 | 0.00 | 0.79 | 0.00 | 94 | 1011.8 |
| 20260510045627 | 10 | 212 | 0.0 | 1.6 | 0.00 | 0.79 | 0.00 | 94 | 1011.6 |
| 20260510045127 | 10 | 212 | 1.6 | 1.6 | 0.00 | 0.79 | 0.00 | 94 | 1011.6 |
| 20260510044626 | 10 | 212 | 1.6 | 3.2 | 0.00 | 0.79 | 0.00 | 94 | 1011.6 |
| 20260510044126 | 10 | 212 | 0.0 | 3.2 | 0.00 | 0.79 | 0.00 | 94 | 1011.6 |
| 20260510043126 | 10 | 212 | 0.0 | 1.6 | 0.00 | 0.79 | 0.00 | 94 | 1011.6 |
| 20260510042627 | 10 | 212 | 0.0 | 1.6 | 0.00 | 0.79 | 0.00 | 93 | 1011.6 |
| 20260510042126 | 10 | 212 | 0.0 | 1.6 | 0.00 | 0.79 | 0.00 | 93 | 1011.8 |
| 20260510041626 | 10 | 212 | 1.6 | 1.6 | 0.00 | 0.79 | 0.00 | 93 | 1011.7 |
| 20260510041126 | 10 | 212 | 0.0 | 4.8 | 0.00 | 0.79 | 0.00 | 93 | 1011.8 |
| 20260510040626 | 10 | 212 | 1.6 | 4.8 | 0.00 | 0.79 | 0.00 | 93 | 1011.7 |
| 20260510035626 | 10 | 134 | 1.6 | 3.2 | 0.00 | 0.79 | 0.79 | 93 | 1011.6 |
| 20260510035126 | 10 | 134 | 1.6 | 3.2 | 0.00 | 0.79 | 0.79 | 94 | 1011.4 |
| 20260510033626 | 9 | 134 | 0.0 | 0.0 | 0.00 | 0.79 | 0.79 | 93 | 1011.3 |
| 20260510030626 | 10 | 134 | 0.0 | 0.0 | 0.00 | 0.79 | 0.79 | 93 | 1011.2 |
| 20260510025626 | 10 | 134 | 0.0 | 0.0 | 0.00 | 0.79 | 0.79 | 93 | 1011.0 |
| 20260510025126 | 10 | 134 | 0.0 | 0.0 | 0.00 | 0.79 | 0.79 | 93 | 1011.1 |
| 20260510024626 | 10 | 134 | 0.0 | 0.0 | 0.00 | 0.79 | 0.79 | 93 | 1011.2 |
| 20260510024126 | 10 | 134 | 0.0 | 0.0 | 0.00 | 0.79 | 0.79 | 93 | 1011.3 |
| 20260510023626 | 10 | 134 | 0.0 | 0.0 | 0.00 | 0.79 | 0.79 | 93 | 1011.5 |
| 20260510023126 | 10 | 134 | 0.0 | 0.0 | 0.00 | 0.79 | 0.79 | 93 | 1011.4 |
| 20260510022626 | 10 | 134 | 0.0 | 0.0 | 0.00 | 0.79 | 0.79 | 93 | 1011.3 |
| 20260510022126 | 10 | 134 | 0.0 | 1.6 | 0.00 | 0.79 | 0.79 | 93 | 1011.3 |
| 20260510021626 | 10 | 134 | 0.0 | 3.2 | 0.00 | 0.79 | 0.79 | 93 | 1011.4 |
| 20260510021126 | 10 | 134 | 0.0 | 3.2 | 0.00 | 0.79 | 0.79 | 93 | 1011.4 |
| 20260510020626 | 10 | 134 | 0.0 | 3.2 | 0.00 | 0.79 | 0.79 | 93 | 1011.3 |
| 20260510020126 | 10 | 134 | 0.0 | 0.0 | 0.00 | 0.79 | 0.79 | 93 | 1011.3 |
| 20260510015126 | 11 | 134 | 0.0 | 1.6 | 0.00 | 0.79 | 0.79 | 93 | 1011.1 |
| 20260510014626 | 11 | 134 | 0.0 | 1.6 | 0.00 | 0.79 | 0.79 | 93 | 1011.2 |
| 20260510014126 | 11 | 182 | 0.0 | 1.6 | 0.00 | 0.79 | 0.79 | 93 | 1011.3 |
| 20260510013626 | 11 | 182 | 0.0 | 1.6 | 0.00 | 0.79 | 0.79 | 93 | 1011.3 |
| 20260510013125 | 11 | 182 | 0.0 | 1.6 | 0.00 | 0.79 | 0.79 | 93 | 1011.2 |
| 20260510012626 | 11 | 182 | 0.0 | 1.6 | 0.00 | 0.79 | 0.79 | 93 | 1011.2 |
| 20260510012126 | 11 | 182 | 0.0 | 1.6 | 0.00 | 0.79 | 0.79 | 93 | 1011.1 |
| 20260510011626 | 11 | 182 | 0.0 | 1.6 | 0.00 | 0.79 | 0.79 | 93 | 1010.9 |
| 20260510011126 | 11 | 182 | 0.0 | 1.6 | 0.00 | 0.79 | 0.79 | 93 | 1010.8 |
| 20260510010625 | 11 | 182 | 0.0 | 0.0 | 0.00 | 0.79 | 0.79 | 93 | 1010.9 |
| 20260510005125 | 11 | 182 | 0.0 | 0.0 | 0.00 | 0.79 | 0.79 | 93 | 1010.9 |
| 20260510004625 | 11 | 182 | 0.0 | 1.6 | 0.00 | 0.79 | 0.79 | 93 | 1010.7 |
| 20260510004125 | 11 | 182 | 0.0 | 1.6 | 0.00 | 0.79 | 0.79 | 93 | 1010.7 |
| 20260510003625 | 11 | 182 | 0.0 | 1.6 | 0.00 | 0.79 | 0.79 | 93 | 1010.6 |
| 20260510003125 | 11 | 182 | 0.0 | 0.0 | 0.00 | 0.79 | 0.79 | 93 | 1010.7 |
| 20260510002625 | 11 | 182 | 0.0 | 0.0 | 0.00 | 0.79 | 0.79 | 93 | 1010.6 |
| 20260510002125 | 11 | 182 | 0.0 | 0.0 | 0.00 | 0.79 | 0.79 | 93 | 1010.4 |
| 20260510001625 | 11 | 182 | 0.0 | 0.0 | 0.00 | 0.79 | 0.79 | 93 | 1010.4 |
| 20260510001125 | 11 | 182 | 0.0 | 1.6 | 0.00 | 0.79 | 0.79 | 93 | 1010.5 |
| 20260510000625 | 11 | 182 | 0.0 | 1.6 | 0.00 | 0.79 | 0.79 | 93 | 1010.4 |
| 20260510000125 | 11 | 182 | 0.0 | 3.2 | 0.00 | 0.79 | 0.79 | 93 | 1010.4 |
| 20260509235125 | 11 | 182 | 0.0 | 3.2 | 0.00 | 0.79 | 0.79 | 93 | 1010.3 |
| 20260509234625 | 11 | 131 | 0.0 | 3.2 | 0.00 | 0.79 | 0.79 | 93 | 1010.4 |
| 20260509234125 | 11 | 185 | 0.0 | 4.8 | 0.00 | 0.79 | 0.79 | 93 | 1010.3 |
| 20260509233125 | 11 | 163 | 1.6 | 3.2 | 0.00 | 0.79 | 0.79 | 93 | 1010.1 |
| 20260509232125 | 11 | 191 | 0.0 | 3.2 | 0.00 | 0.79 | 0.79 | 93 | 1009.8 |
| 20260509231625 | 12 | 131 | 1.6 | 3.2 | 0.00 | 0.79 | 0.79 | 93 | 1009.8 |
| 20260509231125 | 12 | 193 | 0.0 | 3.2 | 0.00 | 0.79 | 0.79 | 93 | 1009.8 |
| 20260509230125 | 12 | 175 | 1.6 | 3.2 | 0.00 | 0.79 | 0.79 | 93 | 1010.0 |
| 20260509225625 | 12 | 139 | 1.6 | 3.2 | 0.00 | 0.79 | 0.79 | 93 | 1010.0 |
| 20260509225125 | 12 | 140 | 3.2 | 6.4 | 0.00 | 0.79 | 0.79 | 93 | 1010.0 |
| 20260509224625 | 12 | 242 | 1.6 | 6.4 | 0.00 | 0.79 | 0.79 | 93 | 1009.9 |
| 20260509224125 | 12 | 100 | 3.2 | 6.4 | 0.00 | 0.79 | 0.79 | 93 | 1009.9 |
| 20260509223124 | 12 | 188 | 1.6 | 1.6 | 0.00 | 0.79 | 0.79 | 93 | 1010.2 |
| 20260509222625 | 12 | 149 | 0.0 | 3.2 | 0.00 | 0.79 | 0.79 | 93 | 1010.1 |
| 20260509221624 | 12 | 171 | 0.0 | 6.4 | 0.00 | 0.79 | 0.79 | 93 | 1010.2 |
| 20260509220625 | 12 | 221 | 0.0 | 8.0 | 0.00 | 0.79 | 0.79 | 94 | 1010.1 |
| 20260509220125 | 12 | 153 | 1.6 | 8.0 | 0.00 | 0.79 | 0.79 | 94 | 1010.2 |
| 20260509215625 | 11 | 236 | 1.6 | 4.8 | 0.00 | 0.79 | 0.79 | 94 | 1010.2 |
| 20260509215124 | 11 | 175 | 1.6 | 4.8 | 0.00 | 0.79 | 0.79 | 93 | 1010.4 |
| 20260509214624 | 11 | 206 | 1.6 | 3.2 | 0.00 | 0.79 | 0.79 | 93 | 1010.3 |
| 20260509214124 | 12 | 234 | 1.6 | 3.2 | 0.00 | 0.79 | 0.79 | 94 | 1010.4 |
| 20260509213624 | 11 | 137 | 0.0 | 3.2 | 0.00 | 0.79 | 0.79 | 94 | 1010.2 |
| 20260509212124 | 11 | 148 | 0.0 | 1.6 | 0.03 | 0.79 | 0.79 | 93 | 1010.3 |
| 20260509211124 | 11 | 148 | 0.0 | 1.6 | 0.03 | 0.79 | 0.79 | 93 | 1010.2 |
| 20260509210624 | 11 | 148 | 0.0 | 1.6 | 0.03 | 0.79 | 0.79 | 93 | 1010.1 |
| 20260509210124 | 11 | 148 | 0.0 | 1.6 | 0.05 | 0.79 | 0.79 | 93 | 1010.3 |
| 20260509205624 | 11 | 148 | 0.0 | 1.6 | 0.05 | 0.79 | 0.79 | 93 | 1010.3 |
| 20260509205124 | 11 | 148 | 0.0 | 3.2 | 0.05 | 0.79 | 0.79 | 93 | 1010.4 |
| 20260509204624 | 11 | 148 | 0.0 | 3.2 | 0.05 | 0.79 | 0.79 | 93 | 1010.4 |
| 20260509204124 | 11 | 256 | 0.0 | 3.2 | 0.05 | 0.79 | 0.79 | 93 | 1010.4 |
| 20260509203624 | 11 | 208 | 0.0 | 3.2 | 0.05 | 0.79 | 0.79 | 93 | 1010.3 |
| 20260509203124 | 11 | 208 | 1.6 | 3.2 | 0.08 | 0.79 | 0.79 | 93 | 1010.6 |
| 20260509202624 | 11 | 208 | 0.0 | 1.6 | 0.08 | 0.76 | 0.76 | 93 | 1010.5 |
| 20260509202124 | 11 | 208 | 0.0 | 3.2 | 0.08 | 0.76 | 0.76 | 93 | 1010.5 |
| 20260509201624 | 11 | 208 | 0.0 | 3.2 | 0.10 | 0.76 | 0.76 | 93 | 1010.6 |
| 20260509201124 | 11 | 222 | 1.6 | 3.2 | 0.13 | 0.76 | 0.76 | 93 | 1010.7 |
| 20260509200624 | 11 | 222 | 0.0 | 3.2 | 0.13 | 0.76 | 0.76 | 93 | 1010.7 |
| 20260509195624 | 11 | 222 | 0.0 | 1.6 | 0.15 | 0.74 | 0.74 | 93 | 1010.8 |
| 20260509195124 | 11 | 222 | 0.0 | 3.2 | 0.15 | 0.74 | 0.74 | 93 | 1011.0 |
| 20260509194624 | 11 | 222 | 0.0 | 3.2 | 0.18 | 0.74 | 0.74 | 93 | 1011.2 |
| 20260509194124 | 10 | 222 | 0.0 | 3.2 | 0.18 | 0.74 | 0.74 | 93 | 1011.2 |
| 20260509193624 | 10 | 222 | 1.6 | 3.2 | 0.20 | 0.74 | 0.74 | 93 | 1011.3 |
| 20260509193124 | 10 | 223 | 0.0 | 4.8 | 0.20 | 0.71 | 0.71 | 93 | 1011.4 |
| 20260509192624 | 10 | 168 | 0.0 | 4.8 | 0.20 | 0.69 | 0.69 | 93 | 1011.4 |
| 20260509192124 | 10 | 209 | 1.6 | 4.8 | 0.23 | 0.69 | 0.69 | 93 | 1011.5 |
| 20260509191124 | 10 | 221 | 1.6 | 6.4 | 0.20 | 0.66 | 0.64 | 93 | 1011.6 |
| 20260509190624 | 11 | 119 | 1.6 | 6.4 | 0.25 | 0.66 | 0.64 | 93 | 1011.6 |
| 20260509190124 | 11 | 238 | 1.6 | 8.0 | 0.23 | 0.64 | 0.61 | 93 | 1011.7 |
| 20260509185624 | 11 | 272 | 0.0 | 16.1 | 0.23 | 0.61 | 0.58 | 93 | 1011.7 |
| 20260509185124 | 11 | 261 | 3.2 | 16.1 | 0.25 | 0.61 | 0.58 | 93 | 1011.7 |
| 20260509184624 | 11 | 76 | 1.6 | 6.4 | 0.25 | 0.58 | 0.56 | 93 | 1011.7 |
| 20260509184123 | 11 | 11 | 0.0 | 6.4 | 0.28 | 0.58 | 0.56 | 93 | 1011.7 |
| 20260509183624 | 11 | 271 | 0.0 | 4.8 | 0.25 | 0.56 | 0.53 | 93 | 1011.9 |
| 20260509183123 | 11 | 174 | 1.6 | 4.8 | 0.23 | 0.53 | 0.51 | 93 | 1011.8 |
| 20260509181623 | 11 | 279 | 3.2 | 4.8 | 0.18 | 0.46 | 0.43 | 93 | 1011.8 |
| 20260509181123 | 11 | 221 | 3.2 | 4.8 | 0.18 | 0.46 | 0.43 | 93 | 1012.1 |
| 20260509180623 | 11 | 204 | 1.6 | 4.8 | 0.13 | 0.41 | 0.38 | 93 | 1012.0 |
| 20260509180124 | 11 | 229 | 0.0 | 3.2 | 0.13 | 0.41 | 0.38 | 93 | 1012.0 |
| 20260509175623 | 11 | 233 | 0.0 | 3.2 | 0.10 | 0.41 | 0.36 | 93 | 1012.0 |
| 20260509175124 | 11 | 233 | 1.6 | 3.2 | 0.08 | 0.41 | 0.33 | 93 | 1012.0 |
| 20260509174623 | 11 | 251 | 1.6 | 4.8 | 0.05 | 0.38 | 0.30 | 93 | 1011.9 |
| 20260509174123 | 11 | 223 | 0.0 | 4.8 | 0.03 | 0.36 | 0.28 | 93 | 1011.9 |
| 20260509173623 | 11 | 227 | 0.0 | 3.2 | 0.03 | 0.36 | 0.28 | 93 | 1011.8 |
| 20260509173123 | 11 | 215 | 1.6 | 3.2 | 0.03 | 0.36 | 0.28 | 93 | 1011.8 |
| 20260509172623 | 11 | 188 | 0.0 | 6.4 | 0.03 | 0.36 | 0.28 | 93 | 1011.8 |
| 20260509172123 | 11 | 244 | 0.0 | 6.4 | 0.05 | 0.36 | 0.28 | 93 | 1011.9 |
| 20260509171623 | 11 | 213 | 0.0 | 3.2 | 0.03 | 0.33 | 0.25 | 93 | 1011.9 |
| 20260509171123 | 11 | 213 | 0.0 | 3.2 | 0.03 | 0.33 | 0.25 | 93 | 1011.9 |
| 20260509170623 | 11 | 169 | 0.0 | 3.2 | 0.03 | 0.33 | 0.25 | 93 | 1011.8 |
| 20260509165623 | 11 | 221 | 1.6 | 4.8 | 0.03 | 0.33 | 0.25 | 93 | 1011.8 |
| 20260509164623 | 11 | 228 | 1.6 | 4.8 | 0.03 | 0.33 | 0.25 | 93 | 1011.7 |
| 20260509164123 | 11 | 228 | 1.6 | 8.0 | 0.03 | 0.33 | 0.25 | 93 | 1011.8 |
| 20260509163623 | 11 | 202 | 1.6 | 8.0 | 0.03 | 0.33 | 0.25 | 93 | 1012.0 |
| 20260509163123 | 11 | 119 | 8.0 | 8.0 | 0.03 | 0.33 | 0.25 | 93 | 1012.0 |
| 20260509162623 | 11 | 202 | 1.6 | 3.2 | 0.05 | 0.33 | 0.25 | 93 | 1012.0 |
| 20260509162123 | 11 | 198 | 1.6 | 4.8 | 0.03 | 0.30 | 0.23 | 93 | 1012.0 |
| 20260509161623 | 11 | 292 | 1.6 | 4.8 | 0.05 | 0.30 | 0.23 | 93 | 1012.0 |
| 20260509161123 | 11 | 167 | 1.6 | 4.8 | 0.05 | 0.30 | 0.23 | 93 | 1011.7 |
| 20260509160623 | 10 | 167 | 0.0 | 4.8 | 0.05 | 0.30 | 0.23 | 93 | 1011.7 |
| 20260509160123 | 10 | 167 | 1.6 | 4.8 | 0.05 | 0.30 | 0.23 | 93 | 1011.8 |
| 20260509155623 | 10 | 219 | 1.6 | 3.2 | 0.05 | 0.30 | 0.23 | 93 | 1012.0 |
| 20260509155123 | 10 | 96 | 0.0 | 1.6 | 0.05 | 0.30 | 0.23 | 93 | 1012.0 |
| 20260509154623 | 10 | 159 | 1.6 | 3.2 | 0.05 | 0.30 | 0.23 | 93 | 1012.2 |
| 20260509154123 | 10 | 155 | 0.0 | 3.2 | 0.05 | 0.30 | 0.23 | 93 | 1012.4 |
| 20260509153123 | 10 | 163 | 1.6 | 3.2 | 0.05 | 0.30 | 0.23 | 93 | 1012.6 |
| 20260509152623 | 10 | 123 | 0.0 | 3.2 | 0.03 | 0.28 | 0.20 | 93 | 1012.6 |
| 20260509152123 | 10 | 123 | 1.6 | 3.2 | 0.05 | 0.28 | 0.20 | 93 | 1012.5 |
| 20260509151623 | 10 | 123 | 1.6 | 3.2 | 0.03 | 0.25 | 0.18 | 93 | 1012.7 |
| 20260509151123 | 10 | 123 | 0.0 | 1.6 | 0.03 | 0.25 | 0.18 | 93 | 1012.5 |
| 20260509150123 | 10 | 123 | 0.0 | 3.2 | 0.03 | 0.25 | 0.18 | 93 | 1012.4 |
| 20260509145623 | 10 | 123 | 0.0 | 3.2 | 0.03 | 0.25 | 0.18 | 93 | 1012.4 |
| 20260509145123 | 9 | 123 | 0.0 | 1.6 | 0.03 | 0.25 | 0.18 | 93 | 1012.3 |
| 20260509144623 | 9 | 123 | 0.0 | 1.6 | 0.03 | 0.25 | 0.18 | 93 | 1012.3 |
| 20260509144122 | 9 | 123 | 0.0 | 3.2 | 0.03 | 0.25 | 0.18 | 93 | 1012.4 |
| 20260509143623 | 9 | 123 | 1.6 | 3.2 | 0.03 | 0.25 | 0.18 | 93 | 1012.4 |
| 20260509143123 | 9 | 113 | 3.2 | 3.2 | 0.03 | 0.25 | 0.18 | 93 | 1012.4 |
| 20260509142623 | 9 | 144 | 0.0 | 1.6 | 0.03 | 0.25 | 0.18 | 93 | 1012.4 |
| 20260509141622 | 9 | 144 | 1.6 | 3.2 | 0.00 | 0.23 | 0.15 | 93 | 1012.3 |
| 20260509141122 | 9 | 96 | 0.0 | 3.2 | 0.00 | 0.23 | 0.15 | 93 | 1012.0 |
| 20260509140122 | 9 | 172 | 0.0 | 4.8 | 0.00 | 0.23 | 0.15 | 93 | 1012.3 |
| 20260509135122 | 9 | 178 | 0.0 | 3.2 | 0.00 | 0.23 | 0.15 | 93 | 1012.5 |
| 20260509134622 | 9 | 178 | 0.0 | 3.2 | 0.00 | 0.23 | 0.15 | 93 | 1012.4 |
| 20260509134122 | 8 | 178 | 0.0 | 1.6 | 0.00 | 0.23 | 0.15 | 93 | 1012.3 |
| 20260509133622 | 8 | 178 | 0.0 | 1.6 | 0.00 | 0.23 | 0.15 | 93 | 1012.3 |
| 20260509133122 | 8 | 178 | 0.0 | 1.6 | 0.00 | 0.23 | 0.15 | 93 | 1012.4 |
| 20260509132622 | 8 | 178 | 0.0 | 1.6 | 0.00 | 0.23 | 0.15 | 93 | 1012.5 |
| 20260509132122 | 8 | 178 | 0.0 | 1.6 | 0.00 | 0.23 | 0.15 | 93 | 1012.7 |
| 20260509131622 | 8 | 178 | 1.6 | 1.6 | 0.00 | 0.23 | 0.15 | 93 | 1012.7 |
| 20260509131122 | 8 | 178 | 0.0 | 1.6 | 0.00 | 0.23 | 0.15 | 93 | 1012.7 |
| 20260509130622 | 8 | 178 | 0.0 | 3.2 | 0.00 | 0.23 | 0.15 | 93 | 1012.8 |
| 20260509130122 | 8 | 178 | 0.0 | 3.2 | 0.00 | 0.23 | 0.15 | 93 | 1012.8 |
| 20260509125622 | 8 | 178 | 0.0 | 3.2 | 0.00 | 0.23 | 0.15 | 93 | 1012.7 |
| 20260509124622 | 8 | 178 | 0.0 | 1.6 | 0.00 | 0.23 | 0.15 | 93 | 1012.7 |
| 20260509124122 | 8 | 192 | 0.0 | 3.2 | 0.00 | 0.23 | 0.15 | 93 | 1012.7 |
| 20260509123622 | 8 | 192 | 0.0 | 3.2 | 0.00 | 0.23 | 0.15 | 93 | 1012.7 |
| 20260509123122 | 8 | 132 | 1.6 | 3.2 | 0.00 | 0.23 | 0.15 | 93 | 1012.8 |
| 20260509122622 | 8 | 204 | 1.6 | 1.6 | 0.03 | 0.23 | 0.15 | 93 | 1012.9 |
| 20260509122122 | 8 | 204 | 0.0 | 3.2 | 0.03 | 0.23 | 0.15 | 92 | 1013.0 |
| 20260509121622 | 8 | 204 | 1.6 | 3.2 | 0.03 | 0.23 | 0.15 | 92 | 1012.8 |
| 20260509121122 | 8 | 212 | 0.0 | 0.0 | 0.03 | 0.23 | 0.15 | 92 | 1012.5 |
| 20260509120622 | 8 | 282 | 0.0 | 0.0 | 0.03 | 0.23 | 0.15 | 92 | 1012.1 |
| 20260509115622 | 8 | 298 | 0.0 | 0.0 | 0.03 | 0.23 | 0.15 | 92 | 1012.2 |
| 20260509115122 | 8 | 65 | 0.0 | 0.0 | 0.03 | 0.23 | 0.15 | 92 | 1012.3 |
| 20260509114122 | 8 | 350 | 0.0 | 0.0 | 0.03 | 0.23 | 0.15 | 92 | 1012.5 |
| 20260509113622 | 8 | 112 | 0.0 | 0.0 | 0.03 | 0.23 | 0.15 | 92 | 1012.3 |
| 20260509112622 | 8 | 193 | 0.0 | 0.0 | 0.00 | 0.20 | 0.13 | 92 | 1012.4 |
| 20260509112121 | 8 | 193 | 0.0 | 0.0 | 0.00 | 0.20 | 0.13 | 92 | 1012.5 |
| 20260509111621 | 8 | 193 | 0.0 | 0.0 | 0.00 | 0.20 | 0.13 | 92 | 1012.6 |
| 20260509111122 | 8 | 193 | 0.0 | 0.0 | 0.00 | 0.20 | 0.13 | 92 | 1012.5 |
| 20260509110621 | 8 | 193 | 0.0 | 0.0 | 0.00 | 0.20 | 0.13 | 92 | 1012.7 |
| 20260509110121 | 8 | 193 | 0.0 | 0.0 | 0.00 | 0.20 | 0.13 | 92 | 1012.6 |
| 20260509105621 | 8 | 193 | 0.0 | 0.0 | 0.00 | 0.20 | 0.13 | 92 | 1012.7 |
| 20260509104621 | 8 | 214 | 0.0 | 0.0 | 0.00 | 0.20 | 0.13 | 92 | 1012.7 |
| 20260509103621 | 8 | 205 | 0.0 | 0.0 | 0.00 | 0.20 | 0.13 | 91 | 1012.8 |
| 20260509103121 | 8 | 107 | 0.0 | 0.0 | 0.00 | 0.20 | 0.13 | 91 | 1012.7 |
| 20260509102621 | 8 | 107 | 0.0 | 0.0 | 0.00 | 0.20 | 0.13 | 91 | 1012.7 |
| 20260509102121 | 8 | 107 | 0.0 | 0.0 | 0.00 | 0.20 | 0.13 | 91 | 1012.7 |
| 20260509101621 | 8 | 107 | 0.0 | 0.0 | 0.00 | 0.20 | 0.13 | 91 | 1012.6 |
| 20260509101121 | 8 | 107 | 0.0 | 0.0 | 0.00 | 0.20 | 0.13 | 91 | 1012.4 |
| 20260509100621 | 8 | 107 | 0.0 | 0.0 | 0.00 | 0.20 | 0.13 | 91 | 1012.4 |
| 20260509100121 | 8 | 107 | 0.0 | 0.0 | 0.00 | 0.20 | 0.13 | 91 | 1012.5 |